Lapse_Rate
2.0 1.8 2.2 2.2 1.7 1.2 1.6 1.9 2.1 2.1 1.3 0.7 0.6 0.2 0.3 0.2 0.9 1.9 3.3 4.0 4.4 4.7 3.8 2.6 2.1 1.6 1.3 0.7 1.2 1.3 1.5 1.1 0.2 1.0 2.4 3.3 3.8 4.2 3.9 4.1 4.5 5.1 5.4
2.1 2.4 2.3 1.6 1.5 1.6 1.5 1.9 2.6 2.5 1.7 0.9 0.7 0.4 0.0 -0.3 -0.1 0.8 2.3 3.4 4.1 4.7 4.0 3.1 2.4 1.9 1.4 1.3 1.5 1.5 1.5 1.6 1.3 1.8 2.1 3.5 4.4 4.0 4.2 4.1 5.0 4.0 4.1
1.6 2.2 2.1 1.2 0.8 0.9 1.0 1.9 2.3 2.4 1.9 1.6 0.7 0.4 0.2 0.2 0.8 1.0 1.3 2.2 3.5 4.0 4.4 4.0 2.8 2.1 1.2 1.4 1.6 2.0 2.5 2.1 2.7 2.9 3.7 4.3 4.8 3.4 4.1 4.0 3.5 3.6 3.3
2.0 1.7 1.9 1.3 0.2 0.6 0.4 1.4 2.2 2.7 2.3 1.4 1.0 0.5 -0.1 0.2 0.1 -0.1 0.3 1.0 3.2 3.5 4.0 4.1 3.5 2.4 1.6 1.8 1.8 3.2 2.5 2.0 2.8 2.9 4.7 4.9 5.2 4.8 3.8 4.4 3.5 3.4 3.8
0.9 1.8 1.7 1.5 0.8 0.8 0.3 0.6 1.7 2.1 2.0 1.3 0.8 -0.1 0.2 -0.6 -0.4 -0.1 0.5 1.3 1.9 3.2 3.8 4.1 3.8 3.0 2.1 2.0 2.1 2.5 2.6 2.1 2.5 2.9 3.1 3.5 4.3 5.3 4.9 4.2 2.5 2.5 2.8
1.7 1.9 1.9 1.7 1.2 0.4 0.5 0.6 1.6 1.9 1.3 1.0 0.9 0.9 0.5 0.2 -0.0 0.2 0.4 0.7 1.5 2.0 3.0 3.8 3.4 3.1 2.7 2.6 2.5 2.6 2.9 3.0 2.7 2.8 3.2 3.9 4.6 4.8 4.6 4.3 3.3 2.6 1.5
1.4 1.6 1.6 1.5 1.6 0.8 0.8 1.0 1.3 1.6 1.2 1.1 1.1 0.9 0.5 0.2 0.4 0.4 0.2 0.7 1.2 1.9 2.3 2.8 2.8 2.7 2.7 2.6 2.4 2.5 2.6 2.8 2.8 3.1 3.3 3.5 4.0 4.5 4.7 4.6 4.2 4.0 1.8
1.2 1.2 1.1 1.1 1.3 1.4 0.9 1.3 1.3 1.6 1.3 1.1 1.1 0.6 0.6 0.2 0.5 0.7 0.6 0.5 0.9 1.3 2.2 2.5 2.4 2.6 2.6 2.5 2.3 2.0 2.0 2.1 1.9 2.4 2.6 3.1 3.6 4.1 4.6 5.1 4.7 4.4 3.2
1.0 1.0 1.0 0.9 0.8 0.9 0.8 0.7 1.0 1.3 1.2 1.2 0.7 0.7 0.5 0.7 0.8 0.9 0.5 0.5 0.9 2.2 2.5 2.3 2.6 2.6 2.4 2.4 2.3 1.8 2.1 2.1 2.1 2.1 2.2 2.5 3.1 3.4 3.5 3.8 4.0 4.8 4.9
1.1 1.0 1.2 1.0 0.7 0.8 1.0 0.8 1.0 1.3 1.4 1.1 0.6 1.0 0.7 0.7 0.7 0.6 1.0 1.2 1.1 1.7 1.7 2.0 2.1 2.2 2.2 2.3 2.2 1.9 2.1 2.0 2.0 2.5 2.5 2.7 2.8 3.0 3.0 3.5 3.9 4.0 4.6
1.0 1.2 1.3 1.1 1.0 0.9 0.8 0.9 0.9 1.4 1.3 1.2 1.1 0.8 0.8 1.1 1.1 1.1 1.0 1.1 1.2 1.2 1.4 1.7 2.0 2.4 2.6 2.7 2.5 2.4 2.5 2.4 2.2 2.3 2.4 2.7 2.8 2.4 2.5 2.8 3.2 3.6 3.6
1.5 1.4 1.2 1.1 0.8 0.7 0.7 0.8 0.8 0.9 1.0 1.1 0.9 0.8 0.8 1.0 0.8 0.9 1.1 1.0 1.2 1.4 1.5 1.4 1.4 1.5 1.7 1.9 2.0 2.1 2.6 2.2 2.2 2.3 2.3 2.4 3.7 2.7 2.5 2.3 2.7 2.8 2.9
2.0 1.6 1.0 0.5 0.4 0.5 0.6 0.7 0.8 0.6 1.0 1.0 0.8 0.8 0.9 0.8 0.7 0.9 1.1 1.3 1.2 1.1 1.0 1.4 1.4 1.6 1.8 1.7 1.7 1.5 1.7 1.7 1.7 1.7 1.6 1.7 1.9 1.7 1.8 2.0 1.9 2.2 3.8
2.2 1.9 1.3 0.5 0.2 0.7 0.7 0.9 0.9 0.6 0.9 0.7 0.6 0.7 0.5 0.4 0.5 0.8 1.0 1.1 1.2 1.1 1.2 1.3 1.4 1.4 1.4 1.5 1.6 1.7 1.4 1.2 1.3 1.1 0.9 1.0 1.2 1.2 1.5 1.8 1.8 2.6 2.1
1.6 1.2 1.8 1.2 0.4 0.4 1.0 1.3 0.9 0.8 0.7 0.6 0.6 0.3 0.3 0.3 0.4 0.7 1.0 1.1 1.1 1.4 1.2 1.3 1.4 1.3 1.6 2.4 1.8 1.5 1.1 0.7 0.5 0.7 1.1 1.4 1.6 2.6 2.7 2.6 1.7 2.0 1.9
2.7 2.2 1.9 2.3 2.1 1.5 0.8 1.5 1.3 0.7 0.4 0.3 0.5 0.4 0.5 0.5 0.4 0.8 1.0 1.0 1.1 1.1 1.2 1.2 1.3 1.3 2.4 3.8 4.4 3.8 1.4 1.4 1.1 0.7 1.1 1.3 2.2 2.7 4.6 5.4 5.4 3.2 2.4
2.9 2.6 1.9 1.7 2.1 1.7 1.9 1.6 1.1 1.0 0.9 0.8 0.6 0.6 0.9 0.9 0.8 1.2 1.3 1.1 1.0 1.0 1.0 1.2 1.5 1.5 1.4 3.7 4.7 5.0 2.9 1.9 1.4 1.2 1.1 1.6 3.2 3.4 2.7 3.7 4.9 4.8 5.5
4.0 3.2 2.3 2.0 1.7 1.6 1.5 1.5 1.5 1.8 1.9 1.4 0.9 0.7 0.8 1.0 1.2 1.4 1.3 1.1 0.8 1.0 1.1 1.4 1.6 1.8 2.3 4.3 5.2 5.5 3.8 2.5 1.8 1.7 1.7 1.5 1.5 2.0 2.8 2.7 2.4 2.2 2.4
5.0 3.6 2.8 2.5 2.2 2.2 2.6 2.7 3.0 2.6 2.1 1.7 1.6 1.6 1.6 1.8 2.0 1.7 1.4 1.2 1.3 1.4 1.4 2.0 2.3 2.3 2.2 4.3 5.1 5.2 3.3 2.7 2.1 2.0 1.7 1.6 1.8 3.1 4.9 3.6 2.8 2.6 2.3
5.0 4.1 3.1 3.0 3.1 3.6 3.3 3.3 3.2 2.8 3.1 3.4 3.0 2.9 2.9 2.4 2.3 2.2 2.1 2.1 2.2 2.4 2.4 2.5 2.2 3.0 2.7 4.1 5.3 5.4 3.3 2.8 2.6 2.3 2.3 4.2 4.2 5.1 5.8 4.5 3.5 3.3 3.0
1.4 1.8 3.0 3.4 3.2 2.6 2.8 3.5 3.4 3.4 3.8 3.9 4.6 4.2 3.5 3.2 2.9 2.8 2.7 3.5 2.7 2.7 2.6 2.8 2.7 2.3 2.4 2.5 5.0 5.8 3.9 3.0 3.0 2.6 3.2 2.7 4.9 6.0 6.5 6.7 4.3 4.3 4.9
2.2 1.8 2.0 2.4 2.6 2.6 2.7 3.3 4.1 5.0 4.6 5.3 5.7 5.5 5.3 5.1 5.8 5.6 4.9 4.2 3.4 3.0 2.7 2.6 2.5 2.5 2.4 4.1 4.8 5.9 6.3 5.9 3.8 3.8 3.8 3.4 5.8 6.5 6.8 6.9 6.6 6.9 7.2
4.6 4.4 4.0 3.6 3.4 3.5 4.6 4.2 5.1 6.6 7.4 7.9 7.5 7.2 7.0 6.9 6.9 5.9 5.2 4.5 4.2 3.6 3.4 3.2 3.2 3.1 3.2 2.9 5.1 6.2 6.9 7.3 6.7 4.6 4.9 6.4 6.8 6.8 6.4 6.8 7.1 7.7 5.6
5.2 5.0 5.0 5.0 4.9 5.0 5.5 6.4 7.6 8.3 8.1 7.5 7.1 6.9 5.6 6.2 5.9 5.3 4.9 4.5 4.3 4.4 4.2 3.5 3.4 4.1 3.8 4.0 4.0 4.2 3.8 5.6 5.6 5.6 4.2 5.2 6.3 7.1 6.7 6.1 4.9 3.9 3.7
5.2 4.9 4.8 4.8 4.9 5.2 5.7 6.8 7.0 7.0 6.4 6.4 5.9 5.5 5.9 6.0 6.6 6.5 6.0 5.5 5.0 5.0 5.4 5.2 4.8 5.3 4.7 4.5 5.7 5.4 4.4 4.0 4.9 6.1 4.1 3.7 3.4 3.4 3.5 3.3 3.3 3.3 3.4
5.0 5.0 5.0 4.7 4.8 5.0 5.7 6.2 6.2 6.1 5.8 5.4 5.4 5.9 6.1 5.7 5.8 5.6 5.4 6.2 6.3 6.5 6.8 7.1 7.2 6.3 7.0 7.7 8.1 8.4 8.5 8.6 9.1 6.9 5.5 6.6 7.6 7.5 7.7 6.7 4.5 3.8 4.6
Wind_Speed
5 7 7 7 7 4 5 4 3 1 2 3 2 2 2 3 2 4 7 7 6 5 3 1 2 3 2 3 3 3 4 3 5 4 4 3 4 4 4 3 2 4 5
7 8 7 7 6 6 5 3 2 1 1 1 1 1 2 2 3 4 8 7 6 5 4 2 1 1 2 4 4 3 3 2 4 2 1 3 4 4 4 4 4 6 5
11 8 9 8 6 6 6 5 4 3 2 2 0 2 2 2 3 4 3 5 9 7 5 4 2 1 1 2 2 2 3 2 3 4 1 2 1 3 3 4 4 5 5
7 7 8 8 8 7 5 5 4 2 1 2 2 2 1 1 2 2 3 5 8 7 6 5 2 1 0 1 2 1 1 2 2 3 4 2 1 0 3 2 3 4 4
10 10 9 9 6 7 7 5 4 3 1 2 2 2 1 2 2 3 5 4 5 6 5 6 3 1 0 1 2 2 3 1 0 1 2 2 2 2 1 3 4 3 2
8 7 7 6 6 5 5 4 4 2 3 3 3 2 2 3 3 3 3 4 3 3 2 3 3 2 2 2 2 2 2 1 1 1 1 1 1 2 2 2 2 3 4
8 8 9 7 7 8 6 5 5 4 5 4 3 3 3 3 4 3 3 4 3 2 4 2 3 2 3 3 2 2 2 2 1 2 2 2 2 1 1 1 2 2 3
7 8 9 8 8 8 7 7 6 5 5 5 4 3 4 3 3 3 2 3 2 3 3 3 3 4 4 3 3 2 3 3 3 4 3 3 3 2 2 2 1 2 2
9 10 9 9 8 8 9 9 8 7 7 7 4 4 4 4 3 4 3 2 3 3 3 3 4 4 3 3 3 3 4 3 3 4 4 3 3 2 2 2 3 3 1
8 8 7 8 7 7 7 8 7 8 7 7 6 5 5 4 3 2 4 4 4 3 5 5 4 4 4 4 3 3 4 4 3 3 4 3 2 3 2 2 2 3 3
8 7 7 7 7 6 7 8 7 7 6 6 5 5 5 4 3 3 4 4 3 3 4 4 5 4 4 4 3 4 5 4 4 3 4 5 4 3 3 2 2 2 3
8 8 8 8 8 8 7 8 8 8 8 7 7 7 5 4 4 5 5 4 4 4 5 4 4 4 4 4 4 5 4 4 4 5 4 6 3 4 3 2 4 3 3
8 7 7 7 8 8 8 8 8 8 7 6 6 6 5 5 6 6 5 4 4 4 4 3 4 4 4 4 4 5 4 4 4 4 4 6 4 5 3 3 4 3 3
8 8 7 8 8 9 8 8 8 8 7 7 7 7 7 7 6 6 6 5 4 4 5 5 5 4 4 4 5 4 4 3 4 4 5 5 5 6 6 5 5 4 3
8 9 11 9 8 7 8 7 7 7 7 7 7 8 7 6 6 6 6 5 5 5 5 5 5 5 4 4 5 4 4 4 5 5 5 5 6 9 8 4 5 4 3
9 9 9 8 8 8 8 7 7 8 7 7 9 7 6 6 7 6 6 6 6 6 6 6 6 6 4 8 9 6 5 5 5 5 5 5 7 8 11 11 10 8 5
9 9 8 7 7 7 7 7 7 6 7 7 7 7 6 7 7 6 6 6 7 5 6 6 6 6 6 10 11 10 4 5 5 5 5 5 4 6 5 8 10 10 10
8 9 7 6 6 4 6 5 4 5 5 6 7 6 6 7 6 6 7 6 5 6 5 6 6 6 6 11 11 10 6 5 6 6 6 6 7 6 6 5 6 6 6
11 7 7 5 5 4 3 1 2 3 5 7 6 7 7 7 6 7 7 6 4 5 5 5 6 5 7 10 12 9 5 6 7 6 6 6 7 11 12 6 7 6 7
13 9 7 4 5 5 5 4 5 5 6 6 7 6 6 7 7 7 6 4 4 5 4 5 6 8 7 13 12 9 4 5 5 6 6 13 10 14 13 6 6 7 9
14 15 11 8 8 7 5 5 4 5 5 6 6 7 5 4 4 4 3 3 5 5 6 6 6 6 8 9 15 15 5 5 5 5 6 4 13 14 14 14 5 8 7
15 14 11 11 12 13 11 9 9 9 7 6 6 6 7 4 3 3 4 5 5 5 6 5 6 5 6 11 13 15 14 12 6 6 5 6 14 16 16 14 14 16 13
7 7 7 8 8 10 10 9 9 10 11 10 7 5 5 5 5 5 5 4 4 4 5 4 5 5 4 4 12 15 16 15 9 4 8 13 14 16 13 15 17 17 6
7 7 6 6 5 4 5 7 10 9 9 9 9 7 5 5 4 3 4 4 4 4 5 4 5 6 4 4 4 5 6 11 7 8 7 7 10 13 13 11 8 4 4
6 5 6 6 7 6 7 8 7 7 6 6 6 6 4 5 7 6 5 5 6 5 6 6 5 6 7 5 9 9 5 5 7 8 4 3 3 3 4 5 6 5 4
8 8 9 8 10 8 9 8 8 8 7 8 7 7 6 5 5 6 7 10 14 15 16 17 12 6 12 17 15 14 16 16 17 6 5 7 8 9 9 8 7 6 8
Wind_Direction
216 186 190 181 166 164 168 176 158 102 46 16 356 353 321 312 323 320 313 301 273 262 234 288 337 7 360 345 328 311 331 319 335 337 338 342 4 34 24 16 43 50 50
179 184 187 186 179 176 179 163 158 119 73 94 283 262 298 299 286 324 337 328 276 244 224 225 300 357 352 2 351 352 332 312 1 349 295 0 335 1 17 32 20 30 23
183 179 188 196 188 182 181 183 196 195 174 158 47 347 337 341 349 344 334 334 322 277 238 232 217 288 68 349 326 331 7 345 318 352 66 7 331 329 351 32 47 43 28
169 172 184 195 194 202 182 188 211 225 161 138 96 92 155 295 272 275 287 307 325 302 259 228 212 217 117 333 296 6 344 59 327 323 1 331 279 0 330 336 347 8 17
174 181 193 195 197 176 188 187 198 193 220 160 151 146 200 230 274 299 324 331 331 336 264 215 205 223 188 269 283 329 350 24 309 298 339 345 340 338 317 304 329 340 331
192 193 199 178 181 178 172 175 196 215 188 183 186 191 233 284 315 317 319 325 316 324 338 222 213 235 240 247 265 291 303 297 288 269 279 252 341 331 346 340 321 290 305
181 188 186 187 187 187 184 185 192 208 205 197 202 212 230 238 256 271 275 304 311 313 315 237 216 234 235 229 225 234 253 262 238 248 264 228 251 219 225 203 279 313 311
222 209 199 197 200 193 188 196 191 214 208 211 223 225 235 234 254 265 275 281 275 280 283 258 228 237 236 238 226 219 237 230 235 253 236 241 246 214 197 201 181 324 315
215 213 208 205 204 196 196 192 197 210 208 210 211 230 234 235 249 282 287 294 296 281 297 275 265 264 258 250 238 234 244 233 244 249 253 248 259 234 220 199 182 171 285
234 232 228 217 216 204 196 194 199 205 211 211 211 221 228 231 239 266 288 292 300 309 314 301 284 280 275 268 254 257 261 245 261 247 252 262 262 268 251 227 215 192 195
247 240 242 239 224 206 198 200 198 208 218 216 220 225 237 248 264 276 283 283 289 289 298 305 306 302 298 292 282 274 271 259 267 271 250 262 253 259 260 245 238 227 189
250 241 238 231 215 210 204 204 204 206 210 208 209 220 226 232 240 247 249 244 267 292 293 296 290 278 266 265 255 259 270 255 268 276 283 280 286 279 271 257 251 235 220
279 257 250 231 220 217 213 210 210 216 214 204 208 223 229 230 238 243 250 259 265 269 276 271 279 286 284 279 262 244 252 250 253 262 262 266 273 274 265 251 246 238 259
253 254 253 234 222 216 215 214 221 215 211 205 208 221 226 225 229 235 239 246 247 257 271 273 271 265 267 263 262 257 248 249 253 260 256 259 252 246 254 250 247 242 242
276 253 248 244 233 223 222 223 229 212 200 208 214 226 225 226 229 234 236 241 245 253 256 262 265 269 263 255 253 245 244 257 272 277 277 268 260 255 246 232 242 229 233
292 280 268 255 234 221 220 220 224 217 190 208 226 228 225 230 227 230 230 230 242 251 254 253 250 261 258 264 269 248 248 264 270 278 283 279 280 277 277 274 256 224 219
306 298 289 258 248 230 217 222 220 200 205 221 238 231 223 231 228 230 227 227 231 231 244 254 257 262 263 267 272 271 254 247 253 262 274 284 263 275 278 284 284 283 272
315 307 292 276 255 232 216 218 204 210 227 246 247 237 222 232 230 226 230 233 226 234 242 248 249 261 275 273 272 270 262 252 250 236 245 253 268 253 260 255 257 251 248
312 286 282 297 313 308 336 358 318 304 280 270 270 254 224 233 230 230 233 233 226 239 239 242 261 256 274 279 275 274 264 259 262 246 243 238 257 268 267 250 251 258 255
332 323 330 347 25 7 5 347 326 324 310 300 280 267 242 235 235 236 234 225 219 245 248 268 254 257 260 276 273 269 238 260 264 270 256 261 256 268 276 265 242 257 264
9 3 1 2 357 350 357 357 354 349 313 313 319 318 304 273 264 272 236 244 243 240 252 251 258 251 249 266 276 276 236 230 248 246 273 260 261 263 264 265 243 248 270
3 10 14 14 11 9 16 10 12 349 346 341 327 324 311 299 307 277 280 262 255 257 263 265 270 254 250 259 266 274 275 260 234 239 243 244 259 266 267 268 259 267 275
358 7 10 10 15 8 360 4 347 338 337 335 320 305 304 314 314 294 279 276 256 248 262 257 265 268 262 251 268 273 278 279 271 228 242 259 264 266 272 277 280 280 269
340 337 342 354 350 354 351 335 327 328 326 321 318 314 299 303 283 271 260 266 269 273 272 266 268 272 257 255 262 275 275 277 275 279 281 262 255 257 266 274 272 245 239
312 308 306 302 294 284 278 277 269 256 256 272 277 272 276 305 314 305 295 297 285 251 278 271 253 271 267 249 256 250 254 246 246 263 257 265 247 257 262 259 255 253 247
287 288 285 277 278 272 273 280 282 284 288 291 289 287 289 283 276 275 285 275 269 275 275 274 271 266 269 282 285 286 281 273 272 267 246 254 266 275 279 277 277 261 252